Skip Page Navigation
NASA JPL Caltech
NASA Logo - Jet Propulsion Laboratory + View the NASA Portal
+ Center for Near-Earth Object Studies
JPL Home Earth Solar System Stars & Galaxies Technology
JPL Solar System Dynamics
BODIES ORBITS EPHEMERIDES TOOLS PHYSICAL DATA DISCOVERY FAQ SITE MAP
JPL Small-Body Database Browser
Search: [ help ]  
437150 (2012 VE29)
Classification: Outer Main-belt Asteroid          SPK-ID: 2437150
Ephemeris | Orbit Diagram | Orbital Elements | Mission Design | Physical Parameters | Discovery Circumstances | Close-Approach Data ]

[ show orbit diagram ]
Orbital Elements at Epoch 2459000.5 (2020-May-31.0) TDB
Reference: JPL 14 (heliocentric ecliptic J2000)
 Element Value Uncertainty (1-sigma)   Units 
e .09894295293327285 7.3439e-08  
a 3.240970861646142 6.3239e-08 au
q 2.920299634224179 2.3789e-07 au
i 4.129938204713115 8.5928e-06 deg
node 324.1985470615804 9.2908e-05 deg
peri 338.1448999960643 0.00010278 deg
M 189.0656239693673 3.9768e-05 deg
tp 2460012.401003967049
(2023-Mar-08.90100397)
0.00023687 TDB
period 2131.135760327431
5.83
6.2375e-05
1.708e-07
d
yr
n .1689240107090545 4.9441e-09 deg/d
Q 3.561642089068105 6.9496e-08 au
  Orbit Determination Parameters
   # obs. used (total)      103  
   data-arc span      4860 days (13.31 yr)  
   first obs. used      2006-10-03  
   last obs. used      2020-01-23  
   planetary ephem.      DE431  
   SB-pert. ephem.      SB431-N16  
   condition code      0  
   norm. resid. RMS      .66894  
   source      ORB  
   producer      Otto Matic  
   solution date      2020-Feb-26 10:08:15  

Additional Information
 Earth MOID = 1.9055 au 
 Jupiter MOID = 1.65823 au 
 T_jup = 3.172 
[ show covariance matrix ]

Ephemeris | Orbit Diagram | Orbital Elements | Mission Design | Physical Parameters | Discovery Circumstances | Close-Approach Data ]

Physical Parameter Table
Parameter Symbol Value Units Sigma Reference Notes
absolute magnitude H 16.3   n/a MPO428067  

437150 (2012 VE29)          Discovered 2006-Oct-03 by Mt. Lemmon Survey at Mount Lemmon
Reference: Last Updated: 2015-06-04

[ show close-approach data ]
Alternate Designations
 2012 VE29 = 2009 BN122 
Ephemeris | Orbit Diagram | Orbital Elements | Mission Design | Physical Parameters | Discovery Circumstances | Close-Approach Data ]
ABOUT SSD CREDITS/AWARDS PRIVACY/COPYRIGHT GLOSSARY LINKS
FirstGov 2020-Aug-15 19:16 UT
(server date/time)  
NASA Home Page
Site Manager:   Ryan S. Park
Webmaster  Alan B. Chamberlin